Weather History for CYPR - June, 2013

Change the Weather History Date:

Friday, June 14, 2013

  Actual Average Record
Temperature  
Mean Temperature 56 °F -  
Max Temperature 62 °F 56 °F 75 °F (2002)
Min Temperature 50 °F 47 °F 44 °F (2007)
Degree Days  
Heating Degree Days 9    
Growing Degree Days 6 (Base 50)    
Moisture  
Dew Point 48 °F    
Average Humidity 81    
Maximum Humidity 94    
Minimum Humidity 67    
Precipitation  
Precipitation 0.00 in - - ()
Sea Level Pressure  
Sea Level Pressure 30.17 in    
Wind  
Wind Speed 4 mph ()    
Max Wind Speed 9 mph    
Max Gust Speed -    
Visibility 9.1 miles    
Events      
Averages and records for this station are not official NWS values.
T = Trace of Precipitation, MM = Missing Value Source: Averaged Metar Reports

Daily Weather History Graph

Daily Weather History Graph

Search for Another Location

Airport or City:

Trip Planner

Search our weather history database for the weather conditions in past years. The results will help you decide how hot, cold, wet, or windy it might be!

Date:

Astronomy

Jun. 14, 2013 Rise Set
Actual Time 5:07 AM PDT 10:17 PM PDT
Civil Twilight 4:12 AM PDT 11:12 PM PDT
Nautical Twilight 2:20 AM PDT 1:05 AM PDT
Astronomical Twilight Sun does not set Sun does not set
Moon 11:39 AM PDT (6/14) 12:40 AM PDT (6/14)
Length of Visible Light 19h 00m
Length of Day
17h 10m
Waxing Crescent, 31% of the Moon is Illuminated
Jun 14
Waxing Crescent
Jun 16
First Quarter
Jun 23
Full
Jun 29
Last Quarter
Jul 8
New

Hourly Weather History & Observations

Time (PDT) Temp. Dew Point Humidity Pressure Visibility Wind Dir Wind Speed Gust Speed Precip Events Conditions
12:00 AM 50.0 °F 46.4 °F 87% 30.20 in 9.0 mi WNW 3.5 mph - N/A   Overcast
1:00 AM 50.0 °F 46.4 °F 87% 30.19 in 9.0 mi NNW 3.5 mph - N/A   Overcast
2:00 AM 50.0 °F 46.4 °F 87% 30.19 in 9.0 mi North 4.6 mph - N/A   Overcast
3:00 AM 50.0 °F 48.2 °F 94% 30.17 in 9.0 mi North 4.6 mph - N/A   Overcast
4:00 AM 50.0 °F 46.4 °F 87% 30.17 in 9.0 mi North 4.6 mph - N/A   Overcast
5:00 AM 50 °F 47 °F 86% 30.18 in 10 mi North 5.8 mph - -   Overcast
5:00 AM 50.0 °F 46.4 °F 87% 30.17 in 9.0 mi North 5.8 mph - N/A   Overcast
6:00 AM 50.0 °F 46.4 °F 87% 30.17 in 9.0 mi North 2.3 mph - N/A   Overcast
7:00 AM 50.0 °F 48.2 °F 94% 30.17 in 9.0 mi SW 2.3 mph - N/A   Overcast
7:49 AM 51.8 °F 48.2 °F 88% 30.17 in 9.0 mi Variable 2.3 mph - N/A   Overcast
8:00 AM 51.8 °F 48.2 °F 88% 30.17 in 9.0 mi Variable 2.3 mph - N/A   Overcast
8:14 AM 51.8 °F 48.2 °F 88% 30.16 in 9.0 mi Calm Calm - N/A   Overcast
9:00 AM 53.6 °F 48.2 °F 82% 30.16 in 9.0 mi Variable 5.8 mph - N/A   Mostly Cloudy
11:00 AM 56 °F 48 °F 67% 30.16 in 10 mi WNW 4.6 mph - -   Overcast
11:00 AM 57.2 °F 48.2 °F 72% 30.16 in 9.0 mi NW 4.6 mph - N/A   Overcast
12:00 PM 59.0 °F 50.0 °F 72% 30.16 in 9.0 mi SW 6.9 mph - N/A   Overcast
1:00 PM 60.8 °F 50.0 °F 68% 30.15 in 9.0 mi West 6.9 mph - N/A   Mostly Cloudy
3:00 PM 57.2 °F 50.0 °F 77% 30.16 in 9.0 mi West 9.2 mph - N/A   Clear
4:00 PM 57.2 °F 50.0 °F 77% 30.16 in 9.0 mi West 6.9 mph - N/A   Clear
4:20 PM 57.2 °F 50.0 °F 77% 30.16 in 9.0 mi West 6.9 mph - N/A   Mostly Cloudy
5:31 PM 57.2 °F 48.2 °F 72% 30.16 in 9.0 mi WNW 8.1 mph - N/A   Scattered Clouds
6:00 PM 57.2 °F 48.2 °F 72% 30.16 in 9.0 mi NW 6.9 mph - N/A   Scattered Clouds
6:01 PM 57.2 °F 48.2 °F 72% 30.16 in 9.0 mi WNW 6.9 mph - N/A   Mostly Cloudy
6:13 PM 57.2 °F 48.2 °F 72% 30.16 in 9.0 mi WNW 6.9 mph - N/A   Scattered Clouds
6:40 PM 57.2 °F 48.2 °F 72% 30.16 in 9.0 mi West 6.9 mph - N/A   Mostly Cloudy
7:00 PM 55.4 °F 48.2 °F 77% 30.16 in 9.0 mi WNW 8.1 mph - N/A   Overcast
9:00 PM 53.6 °F 48.2 °F 82% 30.16 in 9.0 mi NW 4.6 mph - N/A   Overcast
10:00 PM 53.6 °F 48.2 °F 82% 30.16 in 9.0 mi NW 3.5 mph - N/A   Mostly Cloudy
10:07 PM 51.8 °F 48.2 °F 88% 30.16 in 9.0 mi NW 3.5 mph - N/A   Scattered Clouds
11:00 PM 51 °F 47 °F 83% 30.17 in 10 mi North 3.5 mph - -  
11:00 PM 51.8 °F 48.2 °F 88% 30.17 in 9.0 mi NNE 2.3 mph - N/A   Clear